Weather History for KIGX - February, 2014

Change the Weather History Date:

Friday, February 14, 2014

  Actual Average Record
Temperature  
Mean Temperature 44 °F -  
Max Temperature 57 °F 50 °F 78 °F (1949)
Min Temperature 32 °F 27 °F 13 °F (1968)
Degree Days  
Heating Degree Days 20    
Moisture  
Dew Point 25 °F    
Average Humidity 54    
Maximum Humidity 82    
Minimum Humidity 20    
Precipitation  
Precipitation 0.00 in - - ()
Sea Level Pressure  
Sea Level Pressure 29.75 in    
Wind  
Wind Speed 3 mph (WSW)    
Max Wind Speed 7 mph    
Max Gust Speed -    
Visibility 10 miles    
Events      
Averages and records for this station are not official NWS values.
T = Trace of Precipitation, MM = Missing Value Source: NWS Daily Summary

Daily Weather History Graph

Daily Weather History Graph

Search for Another Location

Airport or City:

Trip Planner

Search our weather history database for the weather conditions in past years. The results will help you decide how hot, cold, wet, or windy it might be!

Date:

Astronomy

Feb. 14, 2014 Rise Set
Actual Time 7:04 AM EST 5:56 PM EST
Civil Twilight 6:38 AM EST 6:23 PM EST
Nautical Twilight 6:08 AM EST 6:53 PM EST
Astronomical Twilight 5:38 AM EST 7:22 PM EST
Moon 5:57 PM EST (2/14) 6:31 AM EST (2/14)
Length of Visible Light 11h 44m
Length of Day
10h 52m
Full, 100% of the Moon is Illuminated
Feb 14
Full
Feb 14
Full
Feb 22
Last Quarter
Mar 1
New
Mar 8
First Quarter

Hourly Weather History & Observations

Time (EST) Temp. Windchill Dew Point Humidity Pressure Visibility Wind Dir Wind Speed Gust Speed Precip Events Conditions
12:56 AM 34.0 °F 31.0 °F 27.0 °F 75% 29.68 in 10.0 mi Variable 3.5 mph - N/A   Clear
1:56 AM 32.0 °F - 27.0 °F 82% 29.68 in 10.0 mi Calm Calm - N/A   Clear
2:56 AM 32.0 °F 28.7 °F 26.1 °F 79% 29.69 in 10.0 mi WSW 3.5 mph - N/A   Clear
3:56 AM 32.0 °F - 26.1 °F 79% 29.72 in 10.0 mi Calm Calm - N/A   Clear
4:56 AM 32.0 °F 28.7 °F 25.0 °F 75% 29.74 in 10.0 mi Variable 3.5 mph - N/A   Clear
5:56 AM 32.0 °F 28.7 °F 24.1 °F 73% 29.75 in 10.0 mi Variable 3.5 mph - N/A   Clear
6:56 AM 33.1 °F - 24.1 °F 70% 29.77 in 10.0 mi Calm Calm - N/A   Clear
7:56 AM 35.1 °F 32.2 °F 24.1 °F 64% 29.78 in 10.0 mi Variable 3.5 mph - N/A   Clear
8:56 AM 39.9 °F 37.8 °F 25.0 °F 55% 29.79 in 10.0 mi WSW 3.5 mph - N/A   Clear
9:56 AM 45.0 °F 41.2 °F 25.0 °F 46% 29.79 in 10.0 mi Variable 6.9 mph - N/A   Clear
10:56 AM 48.9 °F - 25.0 °F 39% 29.78 in 10.0 mi North - - N/A   Clear
11:56 AM 53.1 °F - 25.0 °F 34% 29.77 in 10.0 mi Variable 3.5 mph - N/A   Clear
12:56 PM 55.0 °F - 21.9 °F 28% 29.75 in 10.0 mi West 6.9 mph - N/A   Clear
1:56 PM 57.0 °F - 19.0 °F 23% 29.75 in 10.0 mi North - - N/A   Clear
2:56 PM 57.9 °F - 17.1 °F 20% 29.74 in 10.0 mi Variable 6.9 mph - N/A   Clear
3:56 PM 57.9 °F - 17.1 °F 20% 29.74 in 10.0 mi Variable 4.6 mph - N/A   Clear
4:56 PM 55.9 °F - 17.1 °F 22% 29.73 in 10.0 mi Variable 3.5 mph - N/A   Clear
5:56 PM 51.1 °F - 23.0 °F 33% 29.75 in 10.0 mi Calm Calm - N/A   Clear
6:56 PM 46.9 °F - 28.9 °F 50% 29.77 in 10.0 mi Calm Calm - N/A   Clear
7:56 PM 43.0 °F - 30.9 °F 62% 29.77 in 10.0 mi Calm Calm - N/A   Clear
8:56 PM 42.1 °F - 30.9 °F 65% 29.75 in 10.0 mi Calm Calm - N/A   Clear
9:56 PM 41.0 °F 39.0 °F 32.0 °F 70% 29.74 in 10.0 mi South 3.5 mph - N/A   Clear
10:56 PM 43.0 °F - 30.9 °F 62% 29.74 in 10.0 mi Calm Calm - N/A   Scattered Clouds
11:56 PM 39.9 °F - 32.0 °F 73% 29.72 in 10.0 mi Calm Calm - N/A   Scattered Clouds